Regional Weather Roundup
Issued by NWS Charleston, SC

Home | Current Version | Previous Version | Text Only | Print | Product List | Glossary On
Versions: 1 2 3 4 5 6 7 8 9 10 11 12 13 14 15 16 17 18 19 20 21 22 23 24 25 26 27 28 29 30 31 32 33 34 35 36 37 38 39 40 41 42 43 44 45 46 47 48 49 50
000
ASUS42 KCHS 180212
RWRCHS

Regional Weather Roundup
National Weather Service Charleston SC
900 PM EST SUN DEC 17 2017

NOTE: "fair" indicates few or no clouds below 12,000 feet with no
significant weather and/or obstructions to visibility.

Not all stations are quality controlled. Use data with caution,
especially dewpoint observations.

SCZ027-030-031-034>040-042>050-180300-
...Southeast South Carolina...

CITY           SKY/WX    TMP DP  RH WIND       PRES   REMARKS
N Charleston   CLOUDY    55  48  77 SE3       30.21S
Waterfront Prk   N/A     54  50  86 VRB3      30.06F
Mount Pleasant CLOUDY    55  48  76 CALM      30.22R
Johns Island   CLOUDY    54  50  87 CALM      30.21F
Pinopolis        N/A     54  48  82 CALM      30.13R
Moncks Corner  FAIR      54  43  66 CALM      30.21F
Summerville    CLOUDY    55  45  67 CALM      30.23R
Beaufort MCAS  MOCLDY    55  50  83 SE3       30.21S
Beaufort Arpt  CLOUDY    54  50  87 CALM      30.20F
Hilton Head Is CLOUDY    57  54  88 SE5       30.21F
Walterboro     CLOUDY    54  45  71 CALM      30.21S
Allendale      FAIR      54  43  66 CALM      30.19S

...Southern Midlands and Pee Dee...

CITY           SKY/WX    TMP DP  RH WIND       PRES   REMARKS
Georgetown     CLOUDY    52  50  93 CALM      30.23R
Kingstree      CLOUDY    52  43  71 CALM      30.21F
Orangeburg     CLOUDY    56  39  53 CALM      30.20S
Barnwell         N/A     57  41  54 CALM      30.20S
Aiken          CLOUDY    52  39  62 CALM      30.23S
Manning        CLOUDY    52  30  43 MISG      30.21S
Columbia       CLOUDY    56  40  55 N3        30.20S
Sumter         CLOUDY    53  38  58 N5        30.18S
Florence       CLOUDY    53  41  63 CALM      30.22S
Myrtle Beach   CLOUDY    54  49  83 CALM      30.24R
N Myrtle Beach CLOUDY    53  49  86 CALM      30.22S

$$

GAZ063-065-086>088-099>101-113>116-118-119-134>141-150-180300-
...Southeast Georgia...

CITY           SKY/WX    TMP DP  RH WIND       PRES   REMARKS
Savannah Arpt  MOCLDY    55  47  74 S6        30.20F
Hunter AAF     CLOUDY    56  49  77 S5        30.18F
Fort Stewart   CLEAR     55  46  72 S3          N/A
Statesboro     CLOUDY    59  46  61 S5        30.19R
Sylvania       CLOUDY    58  49  71 CALM      30.19F
Claxton        FAIR      59  51  74 SE3       30.18F

...CSRA, Central and far Southeast Georgia...

CITY           SKY/WX    TMP DP  RH WIND       PRES   REMARKS
Thomson        CLOUDY    51  43  74 E3        30.24F
Augusta-Bush   CLOUDY    55  41  59 CALM      30.18S
Augusta-Daniel CLOUDY    56  39  53 CALM      30.19S
Swainsboro     MOCLDY    61  50  67 NE7       30.18F
Vidalia        PTCLDY    59  54  82 CALM      30.18R
Eastman        FAIR      65  50  58 S6        30.17F
Hazlehurst     FAIR      64  52  66 S6        30.17S
Alma           PTCLDY    60  56  86 S5        30.20F
Waycross       PTCLDY    61  57  89 CALM      30.21F
Jesup          NOT AVBL
Baxley         FAIR      59  59 100 S5        30.19S
Brunswick      CLEAR     52  46  82 CALM      30.23S
Saint Simons   CLEAR     57  56  96 CALM      30.22R

$$

SCZ027-028-034-036>038-045-046-048>050-GAZ119-141-180300-
...Lake and Supplemental Coastal Observations...

STATION/POSITION TIME  TEMP    WIND        PRES    WAVE   SWELL
                       AIR SEA DIR/SP/G            HT/PER HT/PER/DIR
                 (UTC) (F)     (DEG/KT/KT) (MB)    (FT/S) (FT/S/D)
Winyah Bay       NOT AVBL
Lake Murray      0120   53        CALM     1022.4R
ACE Basin NERRS  0045   53        CALM     1023.0
Fort Pulaski     0142   57 54  150/  3/  4 1023.0F
Sapelo Island    0100   57     100/  6     1023.0

$$

ANZ835-935-AMZ111-154-330-350-352-354-370-450-454-472-180300-
...C-MAN and Buoy Observations...

STATION/POSITION TIME  TEMP    WIND        PRES    WAVE   SWELL
                       AIR SEA DIR/SP/G            HT/PER HT/PER/DIR
                 (UTC) (F)     (DEG/KT/KT) (MB)    (FT/S) (FT/S/D)
Buoy 41004       0150   68 73  200/  8/ 10 1022.7S   2/10   2/130/10
Buoy 41008       0150   60 59   80/  4/  4 1023.3R   1/10   2/100/10
Folly Beach CMAN 0100   54     110/  3/  3 1023.6F
Capers Nearshore 0108   53 55  140/  6/  8 1022.7F


STATION/POSITION TIME  TEMP    WIND        PRES    WAVE   SWELL
                       AIR SEA DIR/SP/G            HT/PER HT/PER/DIR
                 (UTC) (F)     (DEG/KT/KT) (MB)    (FT/S) (FT/S/D)
5E St. Marys GA  0130      62                N/A     2/10
Frying Pan Buoy  0150   63 69  290/  2/  4 1023.1R   1/10   2/110/10
Buoy 41025       0150   60 72  320/  8/ 10 1024.4R   2/ 9   2/110/ 9
Cape Lookout NC  0100           30/  4/  4 1023.8R
Buoy 41002       0150   68 74  240/  6/ 10 1025.1R   2/ 8   2/ 60/ 8
Buoy 41010       NOT AVBL
St Augustine FL  0200   66 65  160/  4/  4 1023.7S


$$



USA.gov is the U.S. government's official web portal to all federal, state and local government web resources and services.